Location: Oshawa
(43.9000°N, 78.8670°W)
Time: 14:45:43
(UTC-05:00)

Courier 1B - All Passes

Search period start: 26 February 2017 00:00
Search period end: 08 March 2017 00:00
Orbit: 963 x 1209 km, 28.3° (Epoch: 26 February)

Date Brightness Start Highest point End Pass type
(mag) Time Alt. Az. Time Alt. Az. Time Alt. Az.
26 Feb - 01:35:27 10° SW 01:40:29 21° S 01:45:20 10° SE night (unlit)
26 Feb - 03:28:55 10° SW 03:33:29 19° S 03:37:55 10° SSE visible
26 Feb - 22:51:51 10° S 22:53:58 11° SSE 22:56:02 10° SE night (unlit)
27 Feb - 00:41:57 10° SW 00:46:57 20° S 00:51:45 10° SE night (unlit)
27 Feb - 02:35:01 10° SW 02:39:59 21° S 02:44:47 10° SE visible
27 Feb - 04:30:11 10° SW 04:32:51 12° SSW 04:35:27 10° S visible
27 Feb - 23:48:35 10° SSW 23:53:24 19° SSE 23:58:03 10° SE night (unlit)
28 Feb - 01:41:13 10° SW 01:46:28 22° S 01:51:31 10° SE night (unlit)
28 Feb - 03:35:37 10° SW 03:39:25 15° SSW 03:43:07 10° SSE visible
28 Feb - 22:55:24 10° SSW 22:59:50 17° SSE 23:04:08 10° SE night (unlit)
01 Mar - 00:47:30 10° SW 00:52:55 22° S 00:58:07 10° SE night (unlit)
01 Mar - 02:41:23 10° SW 02:45:56 18° SSW 02:50:21 10° SSE night (unlit)
01 Mar - 22:02:31 10° S 22:06:16 14° SSE 22:09:56 10° SE night (unlit)
01 Mar - 23:53:52 10° SW 23:59:20 22° S 00:04:37 10° SE night (unlit)
02 Mar - 01:47:20 10° SW 01:52:26 21° S 01:57:20 10° SE night (unlit)
02 Mar - 03:43:33 10° SW 03:45:16 11° SSW 03:46:56 10° S visible
02 Mar - 21:10:15 10° S 21:12:42 12° SSE 21:15:08 10° SE visible
02 Mar - 23:00:21 10° SW 23:05:45 21° S 23:10:57 10° SE night (unlit)
03 Mar - 00:53:25 10° SW 00:58:53 22° S 01:04:07 10° SE night (unlit)
03 Mar - 02:48:20 10° SW 02:51:49 14° SSW 02:55:13 10° S night (unlit)
03 Mar - 22:06:59 10° SSW 22:12:08 19° SSE 22:17:09 10° SE visible
03 Mar - 23:59:35 10° SW 00:05:17 23° S 00:10:47 10° SE night (unlit)
04 Mar - 01:53:51 10° SW 01:58:20 17° SSW 02:02:40 10° SSE night (unlit)
04 Mar - 21:13:51 10° SSW 21:18:31 17° SSE 21:23:07 10° SE visible
04 Mar - 23:05:51 10° SW 23:11:40 24° S 23:17:18 10° SE night (unlit)
05 Mar - 00:59:39 10° WSW 01:04:48 20° SSW 01:09:45 10° SSE night (unlit)
05 Mar - 20:21:04 10° S 20:24:56 14° SSE 20:28:46 10° SE visible
05 Mar - 22:12:15 10° SW 22:18:02 23° S 22:23:41 10° SE visible
06 Mar - 00:05:38 10° SW 00:11:13 22° S 00:16:37 10° SE night (unlit)
06 Mar - 02:01:12 10° SW 02:04:10 13° SSW 02:07:04 10° S night (unlit)
06 Mar - 19:29:00 10° S 19:31:21 11° SSE 19:33:41 10° SE visible
06 Mar - 21:18:47 10° SW 21:24:23 22° S 21:29:54 10° ESE visible
06 Mar - 23:11:44 10° SW 23:17:37 24° S 23:23:18 10° SE night (unlit)
07 Mar - 01:06:24 10° SW 01:10:39 16° SSW 01:14:48 10° SSE night (unlit)
07 Mar - 20:25:31 10° SSW 20:30:45 19° SSE 20:35:57 10° ESE visible
07 Mar - 22:17:57 10° SW 22:23:58 24° S 22:29:50 10° SE visible
